Simultaneous Nadir Overpasses (SNOs) Predictions

Prediction of SNOs between AQUA and METOP-A Satellite Orbit:

Table of predicted SNOs for the next 14.0 days since TLE Epoch: 2/1/2019
Index Date (AQUA) Time (AQUA) Lat,Lon (AQUA) SZA (AQUA ) Date (METOP-A) Time (METOP-A) Lat,Lon (METOP-A) SZA (METOP-A ) Distance(km) Time Diff (sec)
1 02/04/2019 04:23:50 74.85, 105.92 91.38 02/04/2019 04:23:22 74.86, 105.92 91.39 0.99 28
2 02/04/2019 05:13:17 -74.92, -86.62 88.56 02/04/2019 05:14:02 -74.93, -86.56 88.56 1.89 45
3 02/06/2019 23:58:05 74.86, 172.34 90.53 02/06/2019 23:57:35 74.88, 172.38 90.56 2.61 30
4 02/07/2019 00:47:32 -74.92, -20.18 89.41 02/07/2019 00:48:16 -74.90, -20.23 89.44 2.50 44
5 02/09/2019 19:32:21 74.87,-121.26 89.66 02/09/2019 19:31:50 74.85,-121.29 89.65 2.74 31
6 02/09/2019 20:21:48 -74.93, 46.24 90.30 02/09/2019 20:22:30 -74.92, 46.23 90.31 0.62 42
7 02/12/2019 15:06:37 74.89, -54.86 88.76 02/12/2019 15:06:04 74.86, -54.84 88.74 2.82 33
8 02/12/2019 15:56:04 -74.94, 112.66 91.21 02/12/2019 15:56:44 -74.94, 112.69 91.21 1.01 40
9 02/15/2019 10:40:51 74.86, 11.65 87.78 02/15/2019 10:40:17 74.88, 11.61 87.81 2.28 34
10 02/15/2019 11:30:19 -74.95, 179.06 92.14 02/15/2019 11:30:57 -74.95, 179.14 92.15 2.51 38




NCC Satellite Simultaneous Nadir Overpasses (SNOs) Prediction Service
